Flag for U.S.A. Weather past 2 weeks in Modesto, California, U.S.A.

Now
50 °F

Overcast.


Feels Like: 48 °F
Forecast: 47 / 59 °F
Wind: 6 mph from Southeast

Location: Modesto City-County-Sham Field

Current Time: Feb 28, 2015 at 9:06:34 AM

Latest Report: Feb 28, 2015 at 7:53 AM


Visibility: 10 mi

Pressure: 29.77 "Hg

Humidity: 74%

Dew point: 42 °F

Location of ModestoLocation

Historic Weather in Modesto — Graph

°F

Modesto temperature yesterday

Maximum temperature yesterday: 68 °F (at 1:53 PM)
Minimum temperature yesterday: 43 °F (at 6:53 AM)
Average temperature yesterday: 55 °F

Past Weeks' High & Low Weather Summary

 TemperatureHumidityPressure
High75 °F (Feb 13, 2:53 PM)97% (Feb 16, 5:53 AM)30.35 "Hg (Feb 16, 5:53 AM)
Low37 °F (Feb 25, 6:58 AM)14% (Feb 24, 2:53 PM)29.71 "Hg (Feb 27, 5:53 PM)
Average55 °F73%30.03 "Hg
* Reported Feb 13 7:53 AM — Feb 28 7:53 AM, Modesto, Weather by CustomWeather, © 2015

Note: Actual official high and low records may vary slightly from our data, if they occured in-between our weather recording intervals... More about our weather records

Advertising

Modesto weather history for previous 24 hours

 ConditionsComfort  
Time TempWeatherWind HumidityBarometerVisibility
7:53 AM
Sat, Feb 28
50 °FOvercast.6 mph74%29.77 "Hg10 mi
6:53 AM50 °FOvercast.No wind77%29.75 "Hg10 mi
5:53 AM50 °FOvercast.7 mph77%29.73 "Hg10 mi
4:53 AM50 °FOvercast.3 mph77%29.73 "Hg10 mi
3:53 AM50 °FOvercast.5 mph77%29.72 "Hg10 mi
2:53 AM49 °FMostly cloudy.5 mph77%29.73 "Hg10 mi
1:53 AM50 °FOvercast.6 mph74%29.74 "Hg10 mi
12:53 AM51 °FOvercast.No wind69%29.74 "Hg10 mi
11:53 PM
Fri, Feb 27
51 °FPassing clouds.3 mph69%29.73 "Hg10 mi
10:53 PM52 °FClear.6 mph66%29.73 "Hg10 mi
9:53 PM53 °FPassing clouds.10 mph61%29.74 "Hg10 mi
8:53 PM54 °FClear.17 mph62%29.73 "Hg10 mi
7:53 PM55 °FClear.20 mph59%29.71 "Hg10 mi
6:53 PM56 °FClear.17 mph58%29.71 "Hg10 mi
5:53 PM59 °FSunny.18 mph49%29.71 "Hg10 mi
4:53 PM62 °FSunny.21 mph44%29.72 "Hg10 mi
3:53 PM65 °FSunny.17 mph42%29.72 "Hg10 mi
2:53 PM66 °FPassing clouds.17 mph40%29.73 "Hg10 mi
1:53 PM68 °FBroken clouds.15 mph38%29.75 "Hg10 mi
12:53 PM66 °FPartly sunny.14 mph43%29.78 "Hg10 mi
11:53 AM64 °FPartly sunny.13 mph49%29.82 "Hg10 mi
10:53 AM63 °FBroken clouds.17 mph52%29.85 "Hg10 mi
9:53 AM58 °FSunny.5 mph67%29.86 "Hg10 mi
Weather by CustomWeather, © 2015

See weather overviewHow to use our weather pages